www.pogodaiklimat.ru

Погода и климат >> Архив погоды >> Австралия >> Fitzroy Crossing Aero


ПОГОДА в Fitzroy Crossing Aero

  • Прогноз погоды в Fitzroy Crossing Aero
  • Монитор погоды в Fitzroy Crossing Aero
  • Климат города

АРХИВ ПОГОДЫ в Fitzroy Crossing Aero

Время (UTC), дата Ветер
(напр.,м/с)
 
Видим.   Явления Облачность Т
(С)
Тd
(С)
f
(%)
Тe
(С)
Тes
(С)
Комфортность P
(гПа)
Po
(гПа)
Тmin
(С)
Tmax
(С)
R
(мм)
R24
(мм)
S
(см)
13 8.11 С 6 н/о н/о +31.1 +18.1 46 +36 +36 очень
душно
1009.3 996.5 +43.4
15 8.11 СВ 2 н/о н/о +29.8 +18.3 50 +35 +35 очень
душно
1009.5 996.7
16 8.11 В 2 н/о н/о +29.7 +18.2 50 +34 +34 очень
душно
1009.1 996.3
18 8.11 штиль 0 н/о н/о +29.4 +18.2 51 +34 +34 очень
душно
1009.2 996.4
19 8.11 З 2 н/о н/о +29.2 +18.6 53 +34 +34 очень
душно
1009.5 996.7
21 8.11 Ю 1 н/о н/о +28.8 +18.9 55 +34 +34 очень
душно
1010.1 997.3
22 8.11 ЮВ 2 н/о н/о +29.4 +19.4 55 +35 +35 очень
душно
1010.8 998.0
00 9.11 ЮВ 3 н/о н/о +32.6 +18.8 44 +38 +38 очень
душно
1011.1 998.3
01 9.11 ЮВ 4 н/о н/о +35.4 +18.9 38 +40 +40 очень
душно
1010.8 998.0 +28.7
03 9.11 В 4 н/о н/о +36.8 +17.4 32 +40 +40 очень
душно
1009.2 996.4
04 9.11 С 3 н/о н/о +39.2 +16.2 26 +41 +41 опасность
перегрева
1008.3 995.5
06 9.11 СВ 3 н/о н/о +39.5 +14.5 23 +40 +40 очень
душно
1006.5 993.8
07 9.11 В 3 н/о н/о +40.4 +12.3 19 +40 +40 очень
жарко
1006.0 993.3
09 9.11 СВ 2 н/о н/о +38.5 +10.0 18 +37 +37 очень
жарко
1005.9 993.2
10 9.11 В 2 н/о н/о +36.0 +10.9 22 +35 +35 очень
жарко
1006.3 993.6
12 9.11 штиль 0 н/о н/о +32.0 +12.3 30 +32 +32 жарко 1007.5 994.8
13 9.11 Ю 2 н/о н/о +32.3 +9.2 24 +31 +31 жарко 1008.1 995.3 +41.3
15 9.11 СВ 2 н/о н/о +28.9 +10.6 32 +29 +29 жарко 1008.1 995.3
16 9.11 штиль 0 н/о н/о +28.0 +10.2 33 +28 +28 жарко 1007.7 995.0
18 9.11 С 2 н/о н/о +25.5 +16.4 57 +29 +29 душно 1007.4 994.7
19 9.11 С 3 н/о н/о +24.6 +17.1 63 +28 +28 душно 1007.4 994.7
21 9.11 С 2 н/о н/о +23.7 +16.2 63 +27 +27 жарко 1008.2 995.4
22 9.11 штиль 0 н/о н/о +26.0 +17.9 61 +30 +30 душно 1008.9 996.1
00 10.11 СВ 3 н/о н/о +34.1 +15.5 33 +36 +36 душно 1009.3 996.5
01 10.11 В 4 н/о н/о +37.7 +10.9 20 +37 +37 очень
жарко
1009.2 996.4 +23.7
03 10.11 В 6 н/о н/о +41.0 +1.9 9 +37 +37 очень
жарко
1007.4 994.7
04 10.11 В 7 н/о н/о +41.0 +1.9 9 +37 +37 очень
жарко
1006.3 993.6
06 10.11 В 6 н/о н/о +42.6 -0.4 7 +39 +39 очень
жарко
1004.3 991.6
07 10.11 ЮВ 5 н/о н/о +41.9 -0.9 7 +38 +38 очень
жарко
1003.8 991.1
09 10.11 СВ 3 н/о н/о +40.4 -0.2 8 +37 +37 очень
жарко
1003.9 991.2
10 10.11 СВ 2 н/о н/о +37.0 +0.4 10 +33 +33 жарко 1004.5 991.8
12 10.11 В 3 н/о н/о +33.4 +1.3 13 +30 +30 жарко 1005.8 993.1
13 10.11 В 2 н/о н/о +30.4 +5.6 21 +29 +29 жарко 1006.4 993.7 +43.3
15 10.11 В 4 н/о н/о +29.8 +2.1 17 +27 +27 жарко 1006.2 993.5
16 10.11 СВ 3 н/о н/о +28.0 +5.0 23 +27 +27 жарко 1006.0 993.3
18 10.11 С 3 н/о н/о +26.7 +13.8 45 +29 +29 жарко 1006.1 993.4
19 10.11 С 3 н/о н/о +28.0 +17.5 53 +32 +32 душно 1006.6 993.9
21 10.11 С 3 н/о н/о +27.7 +17.8 55 +32 +32 очень
душно
1007.8 995.1
22 10.11 С 3 н/о н/о +29.6 +18.1 50 +34 +34 очень
душно
1008.6 995.8
00 11.11 С 3 н/о н/о +35.7 +10.7 22 +35 +35 очень
жарко
1008.8 996.0
01 11.11 СВ 4 н/о н/о +37.3 +9.0 18 +36 +36 очень
жарко
1008.5 995.7 +25.8
03 11.11 СЗ 5 н/о н/о +39.3 +7.9 15 +37 +37 очень
жарко
1006.4 993.7
04 11.11 СЗ 2 н/о н/о +40.6 +7.9 14 +38 +38 очень
жарко
1005.4 992.7
06 11.11 ЮЗ 4 н/о н/о +41.7 +8.8 14 +40 +40 очень
жарко
1003.7 991.0
07 11.11 З 3 н/о н/о +41.8 +9.9 15 +40 +40 очень
жарко
1003.4 990.7
09 11.11 З 4 н/о н/о +40.4 +10.6 17 +39 +39 очень
жарко
1003.9 991.2
10 11.11 З 4 н/о н/о +37.5 +11.5 21 +37 +37 очень
жарко
1004.6 991.9
12 11.11 СЗ 2 н/о н/о +33.6 +11.5 26 +33 +33 жарко 1005.7 993.0
13 11.11 СЗ 3 н/о н/о +31.9 +11.7 29 +32 +32 жарко 1006.0 993.3 +43.1
15 11.11 СЗ 3 н/о н/о +31.0 +12.8 33 +32 +32 жарко 1006.0 993.3
16 11.11 СЗ 3 н/о н/о +30.0 +13.7 37 +32 +32 жарко 1005.8 993.1
18 11.11 СЗ 4 н/о н/о +28.2 +14.4 43 +30 +30 жарко 1005.6 992.9
19 11.11 СЗ 3 н/о н/о +27.4 +16.1 50 +31 +31 душно 1006.3 993.6
21 11.11 СЗ 3 н/о н/о +27.5 +19.3 61 +33 +33 очень
душно
1008.2 995.4
22 11.11 СЗ 5 н/о н/о +29.8 +20.9 59 +37 +37 очень
душно
1009.0 996.2
00 12.11 З 5 н/о н/о +34.1 +15.5 33 +36 +36 душно 1009.5 996.7
01 12.11 З 4 н/о н/о +35.4 +14.1 28 +36 +36 очень
жарко
1009.3 996.5 +27.3
03 12.11 З 5 н/о н/о +39.3 +14.3 23 +40 +40 очень
душно
1007.5 994.8
04 12.11 СЗ 5 н/о н/о +39.7 +13.3 21 +40 +40 очень
душно
1006.2 993.5
06 12.11 СЗ 6 н/о н/о +41.2 +12.1 18 +41 +41 опасность
перегрева
1004.3 991.6
07 12.11 ЮЗ 3 н/о н/о +40.1 +12.1 19 +39 +39 очень
жарко
1003.8 991.1
09 12.11 З 4 н/о н/о +39.4 +12.3 20 +39 +39 очень
жарко
1004.0 991.3
10 12.11 ЮЗ 5 н/о н/о +37.9 +12.5 22 +38 +38 очень
жарко
1004.4 991.7
12 12.11 З 4 н/о н/о +34.4 +13.3 28 +35 +35 очень
жарко
1005.6 992.9
13 12.11 З 4 н/о н/о +33.1 +13.7 31 +34 +34 очень
жарко
1005.9 993.2 +42.1
15 12.11 З 5 н/о н/о +33.3 +14.8 33 +35 +35 душно 1006.1 993.4
16 12.11 З 5 н/о н/о +32.3 +15.3 36 +35 +35 очень
душно
1005.7 993.0
18 12.11 З 3 н/о н/о +30.4 +16.8 44 +34 +34 очень
душно
1005.6 992.9
19 12.11 СЗ 3 н/о н/о +28.6 +16.5 48 +32 +32 душно 1006.0 993.3
21 12.11 СЗ 3 н/о н/о +26.4 +16.3 54 +30 +30 душно 1006.9 994.2
22 12.11 З 2 н/о н/о +28.3 +17.5 52 +32 +32 душно 1008.7 995.9
00 13.11 ЮЗ 3 н/о н/о +34.1 +14.6 31 +36 +36 душно 1009.0 996.2
01 13.11 СВ 2 н/о н/о +35.7 +14.4 28 +37 +37 душно 1008.7 995.9 +26.5
03 13.11 Ю 3 н/о н/о +39.6 +12.4 20 +39 +39 очень
жарко
1007.1 994.4
04 13.11 Ю 4 н/о н/о +40.5 +11.6 18 +40 +40 очень
жарко
1006.0 993.3
06 13.11 ЮВ 3 н/о н/о +41.6 +11.6 17 +41 +41 опасность
перегрева
1004.1 991.4
07 13.11 Ю 2 н/о н/о +42.7 +11.5 16 +42 +42 опасность
перегрева
1003.4 990.7
09 13.11 ЮЗ 4 н/о н/о +41.1 +10.3 16 +40 +40 очень
жарко
1003.2 990.5
10 13.11 ЮЗ 3 н/о н/о +39.4 +10.7 18 +38 +38 очень
жарко
1003.7 991.0
12 13.11 ЮЗ 3 н/о н/о +36.0 +11.6 23 +36 +36 очень
жарко
1005.3 992.6
13 13.11 ЮЗ 3 н/о н/о +35.0 +12.0 25 +35 +35 очень
жарко
1005.8 993.1 +43.5
15 13.11 ЮЗ 2 н/о н/о +32.8 +11.9 28 +33 +33 жарко 1005.7 993.0
16 13.11 Ю 4 н/о н/о +34.6 +12.3 26 +35 +35 очень
жарко
1005.5 992.8
18 13.11 штиль 0 н/о н/о +32.2 +12.9 31 +33 +33 жарко 1005.9 993.2
19 13.11 ЮЗ 2 н/о н/о +30.4 +13.7 36 +32 +32 жарко 1006.0 993.3
21 13.11 СЗ 2 н/о н/о +29.2 +17.4 49 +33 +33 очень
душно
1007.1 994.4
22 13.11 штиль 0 н/о н/о +29.3 +18.1 51 +34 +34 очень
душно
1008.2 995.4
00 14.11 В 4 н/о н/о +36.7 +15.8 29 +39 +39 очень
душно
1009.2 996.4
01 14.11 ЮВ 4 н/о н/о +38.9 +12.6 21 +39 +39 очень
жарко
1008.9 996.1 +28.7
03 14.11 В 6 н/о н/о +41.6 +10.7 16 +40 +40 очень
жарко
1007.2 994.5
04 14.11 В 6 н/о н/о +43.5 +10.2 14 +42 +42 опасность
перегрева
1006.2 993.5
06 14.11 Ю 5 н/о н/о +44.1 +8.3 12 +42 +42 опасность
перегрева
1004.4 991.7
07 14.11 В 5 н/о н/о +43.7 +8.0 12 +42 +42 опасность
перегрева
1004.0 991.3
09 14.11 ЮВ 4 н/о н/о +42.2 +6.9 12 +40 +40 очень
жарко
1003.7 991.0
10 14.11 ЮВ 3 н/о н/о +40.3 +7.7 14 +38 +38 очень
жарко
1004.5 991.8
12 14.11 Ю 4 н/о н/о +37.4 +7.3 16 +35 +35 очень
жарко
1006.5 993.8
13 14.11 ЮВ 4 н/о н/о +36.3 +8.2 18 +34 +34 очень
жарко
1007.0 994.3 +45.3
15 14.11 ЮВ 3 н/о н/о +35.7 +14.3 28 +33 +33 жарко 1007.7 995.0
16 14.11 СЗ 7 н/о н/о +32.6 +19.8 47 +39 +39 очень
душно
1008.3 995.5
18 14.11 З 3 н/о н/о +29.3 +20.5 59 +36 +36 очень
душно
1008.0 995.2
19 14.11 З 3 н/о н/о +28.2 +19.2 58 +34 +34 очень
душно
1008.4 995.6
21 14.11 СЗ 3 н/о н/о +26.7 +18.8 62 +32 +32 очень
душно
1009.8 997.0
22 14.11 СЗ 1 н/о н/о +28.3 +18.7 56 +33 +33 очень
душно
1010.5 997.7
00 15.11 ЮВ 1 н/о н/о +35.5 +14.7 29 +37 +37 душно 1011.6 998.8
01 15.11 СВ 6 н/о н/о +38.8 +7.5 15 +37 +37 очень
жарко
1011.6 998.8 +26.2
03 15.11 В 4 н/о н/о +40.6 +5.7 12 +38 +38 очень
жарко
1010.0 997.2
04 15.11 ЮВ 4 н/о н/о +42.2 +5.6 11 +39 +39 очень
жарко
1008.8 996.0
06 15.11 Ю 2 н/о н/о +43.4 +2.0 8 +40 +40 очень
жарко
1006.4 993.7
07 15.11 Ю 6 н/о н/о +43.6 +2.1 8 +40 +40 очень
жарко
1005.8 993.1
09 15.11 Ю 5 н/о н/о +42.2 +1.1 8 +39 +39 очень
жарко
1005.6 992.9
10 15.11 Ю 1 н/о н/о +39.6 +0.9 9 +36 +36 очень
жарко
1005.8 993.1

 

Местоположение метеостанции Fitzroy Crossing Aero (Западная Австралия, Австралия): широта -18.18 долгота 125.56 высота над уровнем моря 115 м.

В архиве по умолчанию представлена погода в Fitzroy Crossing Aero за последнюю неделю. Архивные данные за месяц целиком и за предыдущие месяцы, начиная с января 2011 года, Вы можете получить, выбрав интересующий диапазон дат из раскрывающегося списка и нажав кнопку "Ввод!".


*Определитесь, кто Вы:
робот инопланетянин человек

Внимание! Время в таблицах - всемирное. Для получения местного времени необходимо прибавить поправку, которая в Fitzroy Crossing Aero равна 8 ч.

Смотрите также архив погоды в соседних городах и на ближайших метеорологических станциях:

Погода в Curtin Aero (Западная Австралия, Австралия) (196 км)
Погода в Derby Aero (Северная территория, Австралия) (221 км)
Погода в Halls Creek Airport (Западная Австралия, Австралия) (222 км)
Погода в West Roebuck (Западная Австралия, Австралия) (344 км)
Погода в Argyle Aero (Западная Австралия, Австралия) (352 км)
Погода в Broome Airport (Западная Австралия, Австралия) (353 км)
Погода в Adele Island (Западная Австралия, Австралия) (392 км)
Погода в Wyndham Aero (Западная Австралия, Австралия) (406 км)
Погода в Kununurra (Западная Австралия, Австралия) (428 км)
Погода в Kalumburu (Западная Австралия, Австралия) (447 км)

Пояснения к столбцам:

Ветер - указаны скорость ветра в м/с - средняя за 10 мин, порывы в срок и между сроками (в фигурных скобках) и направление, откуда дует ветер: С - северный, СВ - северо-восточный, В - восточный, ЮВ - юго-восточный, Ю - южный, ЮЗ - юго-западный, З - западный, СЗ - северо-западный.
Видимость - горизонтальная дальность видимости в метрах или километрах. При видимости от 1 до 10 км при отсутствии осадков обычно наблюдается дымка, при ухудшении видимости до 1 км и менее - туман. В сухую погоду видимость может ухудшаться дымом, пылью или мглою.
Явления - указаны атмосферные явления, наблюдавшиеся в срок или в последний час перед сроком; фигурными скобками обозначены явления, наблюдавшиеся между сроками (за 1-3 часа до срока); квадратными скобками обозначены град или гололедные отложения с указанием их диаметра в мм.
Облачность - указаны через наклонную черту общая и нижняя облачность в баллах и высота нижней границы облаков в метрах; квадратными скобками обозначены формы облаков: Ci - перистые, Cs - перисто-слоистые, Cc - перисто-кучевые, Ac - высококучевые, As - высокослоистые, Sc - слоисто-кучевые, Ns - слоисто-дождевые, Cu - кучевые, Cb - кучево-дождевые. Подробнее классификацию облаков см. в Атласе облаков (PDF).
T - Температура воздуха - температура, измеренная на высоте 2 м над землей.
Td - Температура точки росы - температура, при понижении до которой содержащийся в воздухе водяной пар достигнет насыщения.
f - Относительная влажность воздуха - влажноcть воздуха, измеренная на высоте 2 м над землей.
Te - Эффективная температура - температура, которую ощущает одетый по сезону человек в тени. Характеристика душности погоды. При расчете учитывается влияние влажности воздуха и скорости ветра на теплоощущения человека.
Tes - Эффективная температура на солнце - температура, которую ощущает человек, с поправкой на солнечный нагрев. Характеристика знойности погоды. Зависит от высоты солнца над горизонтом, облачности и скорости ветра. Ночью, в пасмурную погоду, а также при ветре 12 м/с и более поправка равна нулю.
P - Атмосферное давление - приведенное к уровню моря атмосферное давление.
Po - Атмосферное давление - измеренное на уровне метеостанции атмосферное давление.
Tmin - Минимальная температура - минимум температуры воздуха на высоте 2 м над землей.
Tmax - Максимальная температура - максимум температуры воздуха на высоте 2 м над землей.
R - Количество осадков - Количество выпавших осадков за период времени, мм. При наведении курсора мыши на число - период времени, за который выпало указанное количество осадков.
R24 - Количество осадков - Количество выпавших осадков за 24 часа, мм.
S - Снежный покров - Высота снежного покрова, см. При наведении курсора мыши на число - состояние снежного покрова и степень покрытия местности в баллах.